Location: Gro�bocka
(50.8204°N, 11.9702°E)
Time: 03:07:58
(UTC+00:00)

X-37B - Pass Details

Date: 24 June 2021
Orbit: 383 x 392 km, 45.0° (Epoch: 01 July)

Event Time Altitude Azimuth Distance (km) Brightness Sun altitude
Rises 21:08:49 0° 237° (WSW) 2,252 4.4 -10.8°
Reaches altitude 10° 21:11:07 10° 223° (SW) 1,400 3.2 -10.9°
Maximum altitude 21:13:41 23° 167° (SSE) 863 1.7 -11.1°
Enters shadow 21:15:02 18° 131° (SE) 1,040 2.2 -11.2°
